Change the Weather History Date:

Sunday, January 27, 2013

  Actual Average Record
Temperature  
Mean Temperature 47 °F -  
Max Temperature 57 °F 45 °F 69 °F (1999)
Min Temperature 37 °F 30 °F 15 °F (2003)
Degree Days  
Heating Degree Days 18    
Moisture  
Dew Point 35 °F    
Average Humidity 59    
Maximum Humidity 66    
Minimum Humidity 54    
Precipitation  
Precipitation 0.00 in - - ()
Sea Level Pressure  
Sea Level Pressure 30.21 in    
Wind  
Wind Speed 8 mph (SE)    
Max Wind Speed 13 mph    
Max Gust Speed 21 mph    
Visibility 10 miles    
Events      
Averages and records for this station are not official NWS values.
T = Trace of Precipitation, MM = Missing Value Source: NWS Daily Summary

Daily Weather History Graph

Daily Weather History Graph

Search for Another Location

Airport or City:

Trip Planner

Search our weather history database for the weather conditions in past years. The results will help you decide how hot, cold, wet, or windy it might be!

Date:

Astronomy

Jan. 27, 2013 Rise Set
Actual Time 7:01 AM CST 5:19 PM CST
Civil Twilight 6:34 AM CST 5:46 PM CST
Nautical Twilight 6:03 AM CST 6:17 PM CST
Astronomical Twilight 5:33 AM CST 6:48 PM CST
Moon 6:10 PM CST (1/27) 6:57 AM CST (1/27)
Length of Visible Light 11h 12m
Length of Day
10h 17m
Full, 100% of the Moon is Illuminated
Jan 27
Full
Feb 3
Last Quarter
Feb 10
New
Feb 17
First Quarter
Feb 25
Full

Hourly Weather History & Observations

Time (CST) Temp. Windchill Dew Point Humidity Pressure Visibility Wind Dir Wind Speed Gust Speed Precip Events Conditions
12:15 AM 37.4 °F 32.1 °F 23.0 °F 56% 30.31 in 10.0 mi ENE 6.9 mph - N/A   Scattered Clouds
12:35 AM 37.4 °F 32.8 °F 23.0 °F 56% 30.30 in 10.0 mi East 5.8 mph - N/A   Overcast
12:55 AM 37.4 °F 30.3 °F 24.8 °F 60% 30.28 in 10.0 mi ENE 10.4 mph - N/A   Overcast
1:15 AM 37.4 °F 31.4 °F 24.8 °F 60% 30.29 in 10.0 mi East 8.1 mph - N/A   Mostly Cloudy
1:55 AM 39.2 °F 35.0 °F 24.8 °F 56% 30.30 in 10.0 mi East 5.8 mph - N/A   Mostly Cloudy
2:55 AM 39.2 °F 33.6 °F 24.8 °F 56% 30.28 in 10.0 mi East 8.1 mph - N/A   Overcast
3:15 AM 39.2 °F 35.0 °F 24.8 °F 56% 30.28 in 10.0 mi East 5.8 mph - N/A   Overcast
3:55 AM 39.2 °F 33.6 °F 24.8 °F 56% 30.27 in 10.0 mi ESE 8.1 mph - N/A   Overcast
6:35 AM 41.0 °F 37.1 °F 26.6 °F 57% 30.28 in 10.0 mi ESE 5.8 mph - N/A   Overcast
7:35 AM 41.0 °F 37.1 °F 26.6 °F 57% 30.28 in 10.0 mi East 5.8 mph - N/A   Overcast
9:55 AM 44.6 °F 40.2 °F 33.8 °F 66% 30.28 in 8.0 mi ESE 8.1 mph - N/A   Overcast
11:15 AM 46.4 °F 41.9 °F 35.6 °F 66% 30.26 in 10.0 mi SE 9.2 mph - N/A   Overcast
11:55 AM 48.2 °F - 35.6 °F 62% 30.24 in 10.0 mi SSE 8.1 mph - N/A   Overcast
1:15 PM 51.8 °F - 37.4 °F 58% 30.20 in 10.0 mi SSE 6.9 mph - N/A   Overcast
1:35 PM 53.6 °F - 37.4 °F 54% 30.19 in 10.0 mi South 8.1 mph - N/A   Mostly Cloudy
3:35 PM 57.2 °F - 42.8 °F 59% 30.15 in 10.0 mi SE 5.8 mph - N/A   Scattered Clouds
3:55 PM 57.2 °F - 42.8 °F 59% 30.15 in 10.0 mi SSE 5.8 mph - N/A   Partly Cloudy
4:15 PM 57.2 °F - 42.8 °F 59% 30.15 in 10.0 mi SSE 8.1 mph - N/A   Clear
4:35 PM 57.2 °F - 42.8 °F 59% 30.15 in 10.0 mi SSE 6.9 mph - N/A   Clear
5:15 PM 55.4 °F - 41.0 °F 58% 30.15 in 10.0 mi SE 9.2 mph - N/A   Partly Cloudy
5:35 PM 55.4 °F - 39.2 °F 54% 30.14 in 10.0 mi SE 9.2 mph - N/A   Clear
5:55 PM 55.4 °F - 39.2 °F 54% 30.15 in 10.0 mi SSE 9.2 mph - N/A   Clear
8:35 PM 53.6 °F - 41.0 °F 62% 30.14 in 10.0 mi SSE 12.7 mph - N/A   Clear
9:15 PM 53.6 °F - 41.0 °F 62% 30.13 in 10.0 mi SSE 10.4 mph 18.4 mph N/A   Clear
9:55 PM 53.6 °F - 41.0 °F 62% 30.13 in 10.0 mi SSE 11.5 mph 20.7 mph N/A   Clear
10:55 PM 55.4 °F - 42.8 °F 63% 30.13 in 10.0 mi SSE 11.5 mph 17.3 mph N/A   Scattered Clouds
11:35 PM 55.4 °F - 42.8 °F 63% 30.13 in 10.0 mi SSE 8.1 mph - N/A   Overcast
11:55 PM 55.4 °F - 42.8 °F 63% 30.13 in 10.0 mi SSE 9.2 mph - N/A   Overcast